Milwaukee, WI

8:01 AM CDT on September 19, 2017 (GMT -0500)
Gen Mitchell International

Weather History for KMKE - August, 2014

Change the Weather History Date:

Friday, August 22, 2014

  Actual Average Record
Temperature  
Mean Temperature 76 °F 70 °F  
Max Temperature 83 °F 78 °F 98 °F (1936)
Min Temperature 69 °F 63 °F 43 °F (1875)
Degree Days  
Heating Degree Days 0 1  
Month to date heating degree days 5 1  
Since 1 June heating degree days 100 96  
Since 1 July heating degree days 26 12  
Cooling Degree Days 11 6  
Month to date cooling degree days 102 146  
Year to date cooling degree days 337 518  
Since 1 June cooling degree days 319 488  
Growing Degree Days 26 (Base 50)    
Moisture  
Dew Point 70 °F    
Average Humidity 87    
Maximum Humidity 100    
Minimum Humidity 74    
Precipitation  
Precipitation 0.00 in 0.12 in 1.94 in (1906)
Month to date precipitation 3.58 2.92  
Year to date precipitation 23.18 23.13  
Snow  
Snow 0.00 in 0.00 in 0.00 in ()
Month to date snowfall 0.0 0.0  
Since 1 June snowfall 0.0 0.0  
Since 1 July snowfall 0.0 0.0  
Snow Depth 0.00 in    
Sea Level Pressure  
Sea Level Pressure 29.95 in    
Wind  
Wind Speed 5 mph (East)    
Max Wind Speed 13 mph    
Max Gust Speed 14 mph    
Visibility 2 miles    
Events Fog    
T = Trace of Precipitation, MM = Missing Value Source: NWS Daily Summary

Daily Weather History Graph

Daily Weather History Graph

Search for Another Location

Airport or City:

Trip Planner

Search our weather history database for the weather conditions in past years. The results will help you decide how hot, cold, wet, or windy it might be!

Date:

Astronomy

Aug. 22, 2014 Rise Set
Actual Time 6:05 AM CDT 7:42 PM CDT
Civil Twilight 5:35 AM CDT 8:12 PM CDT
Nautical Twilight 4:58 AM CDT 8:48 PM CDT
Astronomical Twilight 4:19 AM CDT 9:27 PM CDT
Moon 3:25 AM CDT (8/22) 5:52 PM CDT (8/22)
Length of Visible Light 14h 37m
Length of Day
13h 37m
Waning Crescent, 7% of the Moon is Illuminated
Aug 22
Waning Crescent
Aug 25
New
Sep 2
First Quarter
Sep 8
Full
Sep 15
Last Quarter

Hourly Weather History & Observations

Time (CDT) Temp. Heat Index Dew Point Humidity Pressure Visibility Wind Dir Wind Speed Gust Speed Precip Events Conditions
12:52 AM 70.0 °F - 68.0 °F 93% 29.92 in 0.2 mi ESE 4.6 mph - N/A   Overcast
1:06 AM 70.0 °F - 68.0 °F 93% 29.93 in 0.1 mi ESE 3.5 mph - N/A Fog Fog
1:13 AM 70.0 °F - 68.0 °F 93% 29.93 in 0.1 mi Calm Calm - N/A Fog Fog
1:52 AM 70.0 °F - 69.1 °F 97% 29.91 in 0.1 mi SSE 3.5 mph - N/A Fog Fog
2:52 AM 70.0 °F - 69.1 °F 97% 29.89 in 0.1 mi SSE 3.5 mph - N/A Fog Fog
3:52 AM 71.6 °F - 69.8 °F 94% 29.91 in 0.1 mi SSE 5.8 mph - N/A Fog Fog
4:29 AM 71.1 °F - 70.0 °F 96% 29.92 in 0.1 mi South 6.9 mph - N/A Fog Fog
4:52 AM 71.1 °F - 69.1 °F 93% 29.93 in 0.2 mi SW 4.6 mph - N/A Fog Fog
5:36 AM 70.0 °F - 69.1 °F 97% 29.93 in 0.2 mi Calm Calm - N/A   Overcast
5:48 AM 71.6 °F - 69.8 °F 94% 29.93 in 0.2 mi Calm Calm - N/A   Overcast
5:52 AM 70.0 °F - 70.0 °F 100% 29.92 in 0.2 mi Calm Calm - N/A   Overcast
6:32 AM 70.0 °F - 69.1 °F 97% 29.93 in 0.2 mi Calm Calm - N/A   Overcast
6:52 AM 71.1 °F - 69.1 °F 93% 29.92 in 0.2 mi Calm Calm - N/A Fog Fog
7:34 AM 71.1 °F - 70.0 °F 96% 29.95 in 0.5 mi Calm Calm - N/A   Partly Cloudy
7:50 AM 71.6 °F - 69.8 °F 94% 29.95 in 4.0 mi WNW 3.5 mph - N/A   Mostly Cloudy
7:52 AM 72.0 °F - 70.0 °F 93% 29.94 in 4.0 mi Calm Calm - N/A   Mostly Cloudy
8:52 AM 73.0 °F - 70.0 °F 90% 29.93 in 0.2 mi NE 10.4 mph - N/A   Overcast
9:10 AM 72.0 °F - 70.0 °F 93% 29.95 in 0.2 mi NE 5.8 mph - N/A Fog Fog
9:52 AM 72.0 °F - 69.1 °F 91% 29.95 in 0.2 mi ENE 8.1 mph - N/A   Overcast
10:17 AM 72.0 °F - 69.1 °F 91% 29.97 in 3.0 mi ENE 4.6 mph - N/A   Overcast
10:52 AM 72.0 °F - 69.1 °F 91% 29.97 in 3.0 mi East 5.8 mph - N/A   Overcast
11:52 AM 73.9 °F - 71.1 °F 91% 29.95 in 5.0 mi ENE 5.8 mph - N/A   Overcast
12:00 PM 73.9 °F - 70.0 °F 87% 29.96 in 6.0 mi East 4.6 mph - N/A   Overcast
12:52 PM 75.9 °F - 71.1 °F 85% 29.95 in 6.0 mi SSE 6.9 mph - N/A   Haze
1:27 PM 79.0 °F - 73.0 °F 82% 29.94 in 9.0 mi ESE 4.6 mph - N/A   Scattered Clouds
1:52 PM 79.0 °F - 72.0 °F 79% 29.94 in 9.0 mi SE 6.9 mph - N/A   Scattered Clouds
2:52 PM 82.9 °F 88.8 °F 73.0 °F 72% 29.92 in 10.0 mi Calm Calm - N/A   Scattered Clouds
3:52 PM 78.8 °F - 71.6 °F 78% 29.93 in 10.0 mi East 11.5 mph - N/A   Scattered Clouds
4:34 PM 73.9 °F - 70.0 °F 87% 29.94 in 10.0 mi NE 11.5 mph - N/A   Mostly Cloudy
4:52 PM 73.9 °F - 70.0 °F 87% 29.94 in 10.0 mi NE 6.9 mph - N/A   Mostly Cloudy
5:29 PM 73.0 °F - 70.0 °F 90% 29.95 in 10.0 mi ENE 8.1 mph - N/A   Mostly Cloudy
5:52 PM 73.0 °F - 69.1 °F 87% 29.95 in 10.0 mi East 6.9 mph - N/A   Mostly Cloudy
6:27 PM 71.1 °F - 69.1 °F 93% 29.96 in 1.0 mi ENE 6.9 mph - N/A   Overcast
6:52 PM 71.1 °F - 69.1 °F 93% 29.96 in 0.8 mi ENE 6.9 mph - N/A   Overcast
7:52 PM 70.0 °F - 69.1 °F 97% 29.96 in 0.8 mi East 5.8 mph - N/A   Overcast
8:01 PM 70.0 °F - 69.1 °F 97% 29.97 in 0.8 mi East 6.9 mph - N/A   Overcast
8:29 PM 70.0 °F - 69.1 °F 97% 29.97 in 0.8 mi East 5.8 mph - N/A   Overcast
8:52 PM 70.0 °F - 69.1 °F 97% 29.97 in 0.5 mi ENE 3.5 mph - N/A Fog Fog
9:11 PM 70.0 °F - 69.1 °F 97% 29.99 in 0.5 mi Calm Calm - N/A Fog Fog
9:21 PM 70.0 °F - 69.1 °F 97% 30.00 in 0.5 mi NNE 3.5 mph - N/A Fog Fog
9:52 PM 70.0 °F - 69.1 °F 97% 30.00 in 0.5 mi North 3.5 mph - N/A Fog Fog
10:03 PM 70.0 °F - 69.1 °F 97% 30.00 in 0.2 mi NE 5.8 mph - N/A Fog Fog
10:22 PM 70.0 °F - 69.1 °F 97% 30.00 in 0.5 mi NE 3.5 mph - N/A Fog Fog
10:35 PM 70.0 °F - 70.0 °F 100% 30.01 in 0.2 mi Calm Calm - N/A Fog Fog
10:52 PM 70.0 °F - 69.1 °F 97% 29.99 in 0.2 mi NE 3.5 mph - N/A Fog Fog
11:52 PM 70.0 °F - 68.0 °F 93% 29.99 in 0.1 mi NE 4.6 mph - N/A Fog Fog